Location: Ballingbuur
(53.0000°N, 5.7667°E)
Time: 20:01:03
(UTC+00:00)

Cosmos 1356 - Pass Details

Date: 13 April 2021
Orbit: 438 x 442 km, 81.1° (Epoch: 13 May)

Event Time Altitude Azimuth Distance (km) Brightness Sun altitude
Rises 21:00:56 0° 343° (NNW) 2,454 8.3 -19.3°
Reaches altitude 10° 21:03:02 10° 339° (NNW) 1,578 7.2 -19.5°
Maximum altitude 21:06:24 55° 261° (W) 544 3.9 -19.8°
Enters shadow 21:07:01 46° 220° (SW) 607 3.9 -19.9°
